www.pogodaiklimat.ru
ПОГОДА в Лейпциг аэропорту
Время
(UTC), дата
07 29.11
08 29.11
09 29.11
10 29.11
11 29.11
12 29.11
13 29.11
14 29.11
15 29.11
16 29.11
17 29.11
18 29.11
19 29.11
20 29.11
21 29.11
22 29.11
23 29.11
00 30.11
01 30.11
02 30.11
03 30.11
04 30.11
05 30.11
06 30.11
07 30.11
08 30.11
09 30.11
10 30.11
11 30.11
12 30.11
13 30.11
14 30.11
15 30.11
16 30.11
17 30.11
18 30.11
19 30.11
20 30.11
21 30.11
22 30.11
23 30.11
00 1.12
01 1.12
02 1.12
03 1.12
04 1.12
05 1.12
06 1.12
07 1.12
08 1.12
09 1.12
10 1.12
11 1.12
12 1.12
13 1.12
14 1.12
15 1.12
16 1.12
17 1.12
18 1.12
19 1.12
20 1.12
21 1.12
22 1.12
23 1.12
00 2.12
01 2.12
02 2.12
03 2.12
04 2.12
05 2.12
06 2.12
07 2.12
08 2.12
09 2.12
10 2.12
11 2.12
12 2.12
13 2.12
14 2.12
15 2.12
16 2.12
17 2.12
18 2.12
19 2.12
20 2.12
21 2.12
22 2.12
23 2.12
00 3.12
01 3.12
02 3.12
03 3.12
04 3.12
05 3.12
06 3.12
07 3.12
08 3.12
09 3.12
10 3.12
11 3.12
12 3.12
13 3.12
14 3.12
15 3.12
16 3.12
17 3.12
18 3.12
19 3.12
20 3.12
21 3.12
22 3.12
23 3.12
00 4.12
01 4.12
02 4.12
03 4.12
04 4.12
05 4.12
06 4.12
07 4.12
08 4.12
09 4.12
10 4.12
11 4.12
12 4.12
13 4.12
14 4.12
15 4.12
16 4.12
17 4.12
18 4.12
19 4.12
20 4.12
21 4.12
22 4.12
23 4.12
00 5.12
01 5.12
02 5.12
03 5.12
04 5.12
05 5.12
06 5.12
07 5.12
08 5.12
09 5.12
10 5.12
11 5.12
12 5.12
13 5.12
14 5.12
15 5.12
16 5.12
17 5.12
18 5.12
19 5.12
20 5.12
21 5.12
22 5.12
23 5.12
00 6.12
01 6.12
02 6.12
03 6.12
04 6.12
05 6.12
06 6.12
07 6.12
08 6.12
Ветер
(напр.,м/с)
Видим. Явления Облачность Т
(С)
Тd
(С)
f
(%)
Тe
(С)
Тes
(С)
Комфортность P
(гПа)
Po
(гПа)
Тmin
(С)
Tmax
(С)
R
(мм)
R24
(мм)
S
(см)
З 6 45 км 9/1 900 м
[Sc Ci fib]
+4.3 -0.5 71 -1 -1 по сезону 1001.9 985.4
З 7 40 км 6/0
[Ci fib]
+4.7 +0.8 76 -1 -1 тепло 1002.9 986.4
З 8 40 км 3/0
[Ci fib]
+5.5 +0.5 70 0 0 по сезону 1003.7 987.2
З 8 40 км 1/1 600 м
[Cu Sc Ci fib]
+6.3 +1.3 70 +1 +1 тепло 1004.5 988.1
З 10 40 км 3/3 600 м
[Cu Sc]
+6.8 +1.4 68 +1 +1 тепло 1005.0 988.6
З 11 40 км 6/6 1000 м
[Cu Sc]
+6.8 +1.5 69 +1 +1 по сезону 1005.4 989.0
З 9 40 км 9/9 900 м
[Cu Sc]
+6.4 +1.5 71 +1 +1 тепло 1006.2 989.7
З 7 40 км в посл. час ливневой дождь 9/9 800 м
[Cu Sc]
+6.7 -0.1 62 +2 +2 тепло 1007.1 990.6
З 6 20 км в посл. час ливневой дождь 9/9 600 м
[Cu Sc]
+5.0 +1.7 79 0 0 по сезону 1008.5 991.9 0.0
З 5 25 км в посл. час ливневой дождь 9/9 660 м
[Cu Sc]
+5.4 +1.3 75 +1 +1 тепло 1009.7 993.1
З 6 40 км в посл. час ливневой дождь 9/9 900 м
[Cu Sc]
+4.0 +1.2 82 -1 -1 тепло 1010.9 994.2
З 5 45 км в посл. час ливневой дождь 9/1 600 м
[Cu hum Ac trans]
+4.0 +0.8 80 -1 -1 по сезону 1012.1 995.4 +3.8 +7.7 0.0
СЗ 5 45 км 3/3 800 м
[Sc]
+3.1 -0.5 77 -2 -2 по сезону 1013.5 996.7
СЗ 4-6
{9}
45 км ясно +2.4 -0.7 80 -2 -2 тепло 1014.6 997.8
СЗ 4 40 км ясно +2.1 -1.0 80 -3 -3 по сезону 1015.7 998.8
З 4-4
{5}
40 км ясно +0.2 -1.0 92 -5 -5 по сезону 1016.5 999.5
З 4-4
{4}
40 км ясно -0.5 -1.8 91 -6 -6 тепло 1017.4 1000.3
З 4 40 км 8/8 1500 м
[Sc]
+0.3 -1.2 90 -5 -5 прохладно 1017.6 1000.6
ЮЗ 4 40 км слаб. ливневой дождь 9/9 750 м
[Cb calv]
+1.4 +0.2 92 -4 -4 по сезону 1018.2 1001.2
З 3 10 км слаб. дождь 9/9 300 м
[Sc]
+1.5 +0.8 95 -3 -3 тепло 1018.9 1001.9
З 3 25 км в посл. час дождь {ливн. осадки} 8/8 660 м
[Sc]
+1.4 +0.7 95 -3 -3 по сезону 1019.4 1002.4 0.2
З 4 25 км 8/8 540 м
[Sc]
+1.0 +0.6 97 -4 -4 по сезону 1020.0 1003.0
З 3 20 км в посл. час дождь 5/5 540 м
[Sc]
+0.6 0.0 96 -4 -4 тепло 1020.3 1003.3
ЮЗ 3 25 км {ливн. осадки, дождь} 6/6 1500 м
[Sc]
0.0 -0.6 96 -5 -5 прохладно 1020.9 1003.8 -0.7 +4.0 0.2
З 3 17 км 3/3 750 м
[Cu Sc]
-0.1 -0.5 97 -5 -5 по сезону 1021.4 1004.3
ЮЗ 4 20 км 4/4 840 м
[Cu Sc]
+0.7 -0.1 94 -5 -5 тепло 1022.1 1005.0
ЮЗ 4 20 км 9/9 600 м
[Cu Sc]
+2.6 +1.5 92 -2 -2 по сезону 1022.4 1005.5
З 6 20 км 9/9 750 м
[Cu Sc]
+3.8 +2.0 88 -2 -2 по сезону 1023.0 1006.1
З 7 25 км 3/3 360 м
[Cu Sc]
+4.7 +2.1 83 -1 -1 тепло 1022.8 1006.0
З 6 35 км 3/3 450 м
[Cu Sc]
+5.2 +1.3 76 0 +1 по сезону 1022.9 1006.1
З 4 40 км 5/5 450 м
[Cu Sc]
+5.6 +1.4 74 +2 +2 по сезону 1022.9 1006.1
З 4 40 км 3/3 450 м
[Cu Sc]
+4.1 +1.3 82 -0 0 тепло 1023.3 1006.4
З 4 35 км осадки на расстоянии 4/4 450 м
[Cu Sc]
+2.8 +0.8 87 -2 -2 прохладно 1023.8 1006.8
З 4 30 км 4/4 600 м
[Cu Sc]
+1.7 0.0 88 -3 -3 по сезону 1024.0 1007.0
ЮЗ 4 35 км 3/3 660 м
[Cu Sc]
+0.8 -0.7 90 -5 -5 по сезону 1024.2 1007.1
ЮЗ 3 35 км 4/4 1000 м
[Sc]
+1.1 -0.2 91 -3 -3 по сезону 1024.3 1007.2 -0.3 +5.8
ЮЗ 3 35 км 3/3 840 м
[Sc]
+0.6 -0.6 92 -4 -4 по сезону 1024.5 1007.4
ЮЗ 2-3
{4}
25 км ясно +0.2 -0.8 93 -4 -4 тепло 1024.6 1007.5
ЮЗ 3 20 км ясно 0.0 -1.0 93 -5 -5 прохладно 1024.6 1007.5
ЮЗ 2-2
{3}
20 км ясно -0.3 -0.9 96 -4 -4 по сезону 1024.6 1007.4
ЮЗ 3 20 км 5/5 1200 м
[Sc]
-0.1 -0.9 94 -5 -5 тепло 1024.7 1007.5
З 2 15 км 9/9 1000 м
[Sc]
-0.4 -1.1 95 -4 -4 по сезону 1024.6 1007.4
З 2 15 км 9/9 1260 м
[Sc]
-0.2 -0.9 95 -4 -4 по сезону 1024.5 1007.3
З 2 18 км 8/8 600 м
[Sc]
+0.5 -0.4 94 -3 -3 тепло 1024.3 1007.2
ЮЗ 2 18 км 9/9 1300 м
[Sc]
+0.6 -0.2 94 -3 -3 по сезону 1023.9 1006.8
Ю 1 10 км 8/8 1260 м
[Sc]
-0.4 -0.8 97 -3 -3 по сезону 1023.8 1006.6
ЮЗ 1 10 км местами туман поземный 8/8 1260 м
[Sc]
-0.3 -0.8 96 -3 -3 тепло 1023.7 1006.5
ЮЗ 1 15 км 8/8 1000 м
[Sc]
+0.3 -0.6 94 -2 -2 по сезону 1023.5 1006.4 -0.9 +1.4
ЮВ 1 15 км 9/6 1230 м
[Sc Ci]
-0.1 -0.9 94 -2 -2 по сезону 1022.9 1005.8
В 2 12 км местами туман поземный 9/1 1200 м
[Sc Ci sp]
-0.7 -1.1 97 -5 -5 тепло 1023.1 1005.9
ЮВ 2 12 км 9/1 1000 м
[Sc Ci sp]
+0.1 -0.4 96 -4 -3 прохладно 1023.4 1006.3
В 2 18 км 9/3 1200 м
[Sc Ci fib]
+1.7 +0.8 94 -2 -1 по сезону 1022.9 1005.9
В 3 22 км 9/1 1200 м
[Sc Ci fib]
+3.5 +0.8 82 -0 +1 тепло 1022.4 1005.5
В 2 30 км 9/1 450 м
[Cu Sc Ci fib]
+4.5 +0.6 76 +2 +3 по сезону 1022.2 1005.4
СВ 2 35 км 9/3 540 м
[Cu Sc Ci fib]
+4.7 +0.2 73 +2 +3 тепло 1021.6 1004.8
СВ 2 35 км 9/3 540 м
[Cu Sc Ci sp]
+3.8 +1.2 83 +1 +1 тепло 1021.2 1004.3
СВ 2 20 км 9/9
[Frnb As op]
+2.6 +1.4 92 -1 -1 по сезону 1021.1 1004.2
СВ 2 8000 м 10/0
[As op Cs]
+1.3 +0.8 96 -2 -2 по сезону 1021.4 1004.4
СВ 2 8000 м 10/0
[As op]
+1.5 +0.8 95 -2 -2 тепло 1021.1 1004.1
СВ 2 8000 м 10/0
[As op]
+1.3 +0.8 96 -2 -2 по сезону 1021.0 1004.0 -1.2 +5.1
СВ 2 5000 м дымка 10/0
[As op]
+0.8 +0.5 98 -3 -3 по сезону 1020.6 1003.6
В 2 3500 м дымка 10/0
[As op]
+0.6 +0.3 98 -3 -3 тепло 1020.6 1003.6
СВ 2 1200 м дымка 10/0
[As op]
-0.1 -0.3 99 -4 -4 прохладно 1020.8 1003.7
С 1-2
{2}
200 м туман ?/? +0.2 +0.1 99 -2 -2 по сезону 1020.5 1003.4
СЗ 2-3
{4}
200 м туман ?/? 0.0 0.0 100 -4 -4 тепло 1020.8 1003.7
СЗ 3 200 м туман ?/? -0.4 -0.5 99 -5 -5 прохладно 1020.7 1003.6
СЗ 1-2
{3}
200 м туман ?/? 0.0 0.0 100 -2 -2 по сезону 1020.5 1003.4
СЗ 2-3
{3}
200 м туман ?/? +0.2 0.0 99 -4 -4 тепло 1020.8 1003.7
З 2 1500 м в посл. час туман 10/10 1320 м
[Sc]
+0.5 +0.4 99 -3 -3 по сезону 1021.0 1003.9
З 2 4000 м дымка 10/10 1380 м
[Sc]
+0.6 +0.3 98 -3 -3 по сезону 1020.5 1003.5
З 2 6000 м дымка 10/10 540 м
[Sc]
+0.5 +0.1 97 -3 -3 тепло 1020.7 1003.7
ЮЗ 3 18 км {туман} 10/9 1500 м
[Sc]
+0.6 -0.1 95 -4 -4 по сезону 1020.8 1003.8 -0.4 +1.2
З 4 18 км 9/9 450 м
[Cu Sc]
+0.6 -0.4 93 -5 -5 по сезону 1021.3 1004.2
ЮЗ 4 20 км 9/9 450 м
[Cu Sc]
+1.3 -0.3 89 -4 -4 тепло 1021.6 1004.6
З 6 30 км 8/8 600 м
[Cu Sc Ci sp]
+2.5 +0.5 87 -3 -3 по сезону 1021.9 1005.0
З 8 40 км 9/9 570 м
[Cu Sc]
+2.4 +0.2 85 -4 -4 по сезону 1022.5 1005.5
З 7 40 км в посл. час дождь 9/9 600 м
[Cu Sc]
+3.5 +1.1 84 -3 -3 тепло 1022.3 1005.4
З 7 40 км в посл. час дождь 9/9 500 м
[Cu med, cong]
+4.1 +1.4 83 -2 -2 прохладно 1022.5 1005.6 0.0
З 7 40 км 9/9 400 м
[Cu Sc]
+4.4 +1.7 83 -1 -1 по сезону 1022.4 1005.6
З 6 35 км 9/9 360 м
[Cu Sc]
+4.1 +1.6 84 -1 -1 тепло 1022.3 1005.4
З 7 25 км слаб. ливневой дождь 9/9 360 м
[Cu Sc]
+3.5 +2.0 90 -3 -3 прохладно 1022.3 1005.4 0.0
З 6 40 км в посл. час ливневой дождь 9/9 630 м
[Cu med, cong]
+3.6 +1.9 89 -2 -2 по сезону 1022.6 1005.7
З 7 30 км 9/9 570 м
[Sc]
+3.8 +1.6 86 -2 -2 тепло 1023.3 1006.4
З 5 40 км {ливн. осадки, дождь} 9/9 300 м
[Cu Sc]
+3.4 +1.5 87 -2 -2 по сезону 1023.6 1006.7 +0.6 +4.6 0.0
З 6 40 км 9/9 540 м
[Sc]
+3.2 +1.6 89 -3 -3 по сезону 1024.0 1007.1
З 5 35 км 9/9 540 м
[Cu Sc]
+3.2 +1.6 89 -2 -2 тепло 1024.3 1007.4
З 5 25 км 5/5 540 м
[Sc]
+1.8 +0.7 92 -4 -4 прохладно 1025.0 1008.0
З 4 18 км 5/5 750 м
[Sc]
+0.4 -0.3 95 -5 -5 по сезону 1025.5 1008.4
З 4 18 км 6/6 900 м
[Sc]
+2.3 +1.1 92 -3 -3 тепло 1026.0 1009.0
З 4 25 км 8/8 600 м
[Sc]
+2.3 +0.7 89 -3 -3 по сезону 1026.4 1009.4
З 3 30 км 9/9 1410 м
[Sc]
+2.2 +1.0 92 -2 -2 по сезону 1026.4 1009.4
СЗ 1 25 км 9/9 900 м
[Sc]
+2.9 +1.2 89 +1 +1 тепло 1026.6 1009.6
З 2 30 км слаб. дождь 9/9 480 м
[Cu Sc]
+2.9 +1.1 88 -0 -0 по сезону 1027.0 1010.0 0.0
З 2 18 км в посл. час дождь 10/9 480 м
[Cu Sc]
+2.5 +1.5 93 -1 -1 тепло 1027.3 1010.3
ЮЗ 2 12 км слаб. дождь 10/10 400 м
[Sc As op]
+2.5 +1.9 96 -1 -1 тепло 1027.2 1010.2
СВ 3 10 км в посл. час дождь 10/9 50 м
[Sc]
+2.6 +1.9 95 -2 -2 по сезону 1027.8 1010.8 +0.4 +3.5 0.3
ЮВ 1 6000 м дождь 10/10 270 м
[Sc]
+2.3 +1.8 96 0 0 тепло 1028.1 1011.0
ЮЗ 2 6000 м в посл. час дождь 9/8 450 м
[Cu Sc Ci sp]
+2.7 +2.2 97 -1 -1 тепло 1028.1 1011.1
ЮЗ 3 6000 м дымка {дождь} 9/8 300 м
[Cu Sc Ci sp]
+3.3 +2.4 94 -1 -1 по сезону 1028.4 1011.4 0.1
ЮЗ 4 6000 м дымка 9/8 400 м
[Cu Sc Ci sp]
+4.1 +3.0 93 -1 -0 по сезону 1028.3 1011.4
ЮЗ 3 13 км 9/9 210 м
[Cu Sc]
+5.0 +3.2 88 +1 +2 тепло 1027.8 1010.9
З 4 10 км слаб. дождь 10/10 330 м
[Cu Sc]
+5.3 +4.0 91 +1 +1 по сезону 1027.7 1010.8 0.0
ЮЗ 5 15 км в посл. час дождь 10/10 360 м
[Cu Sc]
+5.6 +3.3 85 +1 +1 тепло 1027.2 1010.4
З 4 20 км 10/10 360 м
[Cu Sc]
+5.6 +3.6 87 +2 +2 тепло 1027.2 1010.4
З 4 20 км слаб. дождь 9/9 450 м
[Cu Sc]
+5.2 +3.5 89 +1 +1 по сезону 1027.5 1010.6 0.1
З 4 20 км в посл. час дождь 9/9 400 м
[Cu Sc]
+5.1 +3.7 91 +1 +1 тепло 1027.3 1010.4
ЮЗ 3 20 км 9/6 400 м
[Cu Sc As trans]
+4.5 +3.3 92 +1 +1 тепло 1027.2 1010.3
ЮЗ 3 20 км {дождь} 9/6 1000 м
[Sc As trans]
+4.5 +3.4 93 +1 +1 по сезону 1027.1 1010.2 +2.1 +5.9 0.2
ЮЗ 4 22 км 9/9 1110 м
[Sc]
+4.4 +3.0 91 0 0 тепло 1027.2 1010.3
ЮЗ 4 22 км в посл. час дождь 10/9 700 м
[Sc]
+4.2 +2.7 90 -0 -0 тепло 1027.1 1010.2
ЮЗ 4 22 км {дождь} 10/9 800 м
[Sc]
+4.3 +2.9 91 -0 -0 по сезону 1026.8 1009.9 0.0
ЮЗ 4 25 км 9/9 800 м
[Sc]
+3.6 +1.9 89 -1 -1 тепло 1026.9 1009.9
ЮЗ 4 25 км 9/9 1500 м
[Sc]
+4.1 +2.0 86 -0 -0 тепло 1026.9 1010.0
ЮЗ 5 45 км {дождь} 9/9 1500 м
[Sc]
+4.0 +1.4 83 -1 -1 по сезону 1026.5 1009.6 0.0
ЮЗ 6 45 км 9/9 1500 м
[Sc]
+3.8 +1.1 83 -2 -2 по сезону 1026.2 1009.3
ЮЗ 5 45 км 10/9 1470 м
[Sc]
+3.7 +0.7 81 -1 -1 тепло 1026.0 1009.1
ЮЗ 5 40 км 4/4 1500 м
[Sc]
+2.6 +0.1 84 -3 -3 по сезону 1025.7 1008.7
ЮЗ 4 30 км 1/1 1500 м
[Sc]
+1.6 -0.2 88 -4 -4 по сезону 1025.6 1008.5
ЮЗ 4 28 км 3/3 1500 м
[Sc]
+1.4 -0.4 88 -4 -4 тепло 1025.3 1008.2
Ю 4 25 км 1/0
[Ci fib]
+0.8 -1.0 88 -5 -5 по сезону 1025.3 1008.2 +0.7 +4.6 0.0
Ю 4 25 км 5/0
[Ac und Ci]
0.0 -1.2 92 -6 -6 по сезону 1025.6 1008.4
Ю 4 18 км 5/0
[Ci sp]
+0.6 -1.0 89 -5 -5 тепло 1025.7 1008.6
Ю 4 20 км 5/0
[Ci sp]
+1.9 -0.6 83 -3 -3 по сезону 1025.5 1008.5
Ю 5
{6}
20 км 4/0
[Ci sp]
+3.5 +0.2 79 -2 -1 по сезону 1025.5 1008.6
ЮЗ 4 25 км 1/0
[Ci fib]
+4.8 +0.9 76 +1 +2 тепло 1025.0 1008.1
ЮЗ 3 25 км 3/0
[Ac und Ci fib]
+5.8 +1.4 73 +3 +4 по сезону 1024.3 1007.5
Ю 3 30 км 3/0
[Ac trans Ci fib]
+5.8 +1.3 73 +3 +3 тепло 1023.9 1007.1
Ю 2 35 км 3/0
[Ac trans Ci fib]
+5.7 +1.4 74 +3 +4 тепло 1023.5 1006.7
Ю 1 40 км 4/0
[Ac trans Ci]
+5.1 +1.1 75 +4 +4 тепло 1023.4 1006.6
Ю 1 25 км 4/0
[Ci]
+3.1 +0.5 83 +2 +2 тепло 1023.3 1006.4
Ю 1 20 км 3/0
[Ci sp]
+2.3 +0.7 89 +1 +1 тепло 1023.3 1006.3
Ю 2 25 км ясно +1.5 -0.3 88 -2 -2 по сезону 1023.3 1006.3 -0.1 +6.1
ЮВ 2-2
{2}
35 км ясно +0.1 -1.8 87 -4 -4 по сезону 1023.2 1006.1
ЮВ 2-3
{3}
35 км ясно +1.0 -1.3 85 -2 -2 тепло 1023.2 1006.1
ЮВ 1 35 км ясно +0.5 -1.2 88 -1 -1 по сезону 1022.9 1005.8
ЮВ 2-2
{3}
35 км ясно -0.2 -1.6 90 -4 -4 по сезону 1022.5 1005.4
Ю 2-3
{3}
35 км ясно -0.5 -1.5 93 -4 -4 тепло 1022.4 1005.3
Ю 3 30 км ясно -0.9 -1.6 95 -6 -6 прохладно 1022.1 1004.9
Ю 3-4
{4}
30 км ясно -0.8 -1.7 94 -6 -6 по сезону 1021.8 1004.6
Ю 2 35 км 4/0
[Ci]
-0.2 -2.1 87 -4 -4 тепло 1021.5 1004.4
Ю 4 35 км 6/0
[Ci]
-1.6 -3.0 90 -7 -7 прохладно 1021.3 1004.1
Ю 3 35 км 9/0
[Ci]
-1.9 -3.4 89 -7 -7 по сезону 1020.9 1003.7
Ю 4 30 км 6/0
[Ci sp]
-0.4 -2.7 84 -6 -6 тепло 1020.8 1003.7
Ю 5 30 км 4/0
[Ci sp]
-0.9 -3.2 84 -7 -7 прохладно 1021.3 1004.1 -2.1 +1.8
Ю 5 18 км 10/0
[Ci]
-1.6 -3.5 87 -8 -8 по сезону 1021.1 1003.9
ЮЗ 5 20 км 6/0
[Ci fib]
-0.6 -3.1 83 -7 -7 тепло 1021.6 1004.5
ЮЗ 4 25 км 5/0
[Ci fib]
+0.6 -2.6 79 -5 -4 прохладно 1021.8 1004.7
Ю 5 25 км 3/0
[Ci fib]
+2.1 -1.9 75 -3 -3 по сезону 1021.8 1004.8
ЮЗ 5 30 км 1/0
[Ci fib]
+3.5 -1.5 70 -1 -1 тепло 1021.5 1004.6
ЮЗ 5 27 км ясно +4.1 -1.3 68 -1 0 по сезону 1021.1 1004.3
Ю 5-7
{8}
25 км ясно +4.3 -1.1 68 -0 0 по сезону 1020.7 1003.9
Ю 6-8
{8}
25 км ясно +3.7 -1.3 70 -2 -1 тепло 1020.5 1003.6
ЮЗ 5 25 км ясно +2.5 -1.8 73 -3 -3 по сезону 1020.3 1003.4
ЮЗ 4 22 км 1/0
[Ci]
+1.3 -2.1 78 -4 -4 по сезону 1020.1 1003.1
ЮЗ 5-7
{7}
16 км ясно +1.3 -1.7 80 -4 -4 тепло 1020.2 1003.2
Ю 6 10 км ясно +0.6 -2.0 83 -6 -6 прохладно 1019.9 1002.9 -1.7 +4.5
Ю 5-7
{8}
12 км ясно +0.4 -2.3 82 -6 -6 по сезону 1019.8 1002.8
Ю 5-7
{9}
12 км ясно +0.2 -2.5 82 -6 -6 тепло 1019.6 1002.5
Ю 5 12 км ясно -1.0 -2.9 87 -7 -7 прохладно 1019.5 1002.4
ЮЗ 5-6
{8}
12 км ясно -1.0 -3.3 84 -7 -7 по сезону 1019.1 1002.0
ЮЗ 7-9
{12}
15 км ясно -0.5 -3.3 81 -8 -8 по сезону 1018.7 1001.6
Ю 5 15 км ясно -1.1 -3.4 84 -7 -7 прохладно 1018.0 1000.9
Ю 4-7
{8}
12 км ясно -1.2 -3.4 85 -7 -7 по сезону 1017.3 1000.2
ЮЗ 6-7
{8}
12 км ясно -1.4 -3.6 85 -8 -8 по сезону 1016.9 999.8
ЮЗ 6 15 км ясно -0.5 -3.6 80 -7 -7 прохладно 1016.2 999.2
Ю 7-10
{10}
15 км ясно +0.1 -3.7 76 -7 -7 по сезону 1015.5 998.5
ЮЗ 5-7
{8}
15 км ясно -0.8 -4.1 78 -7 -7 тепло 1015.2 998.2
ЮЗ 6 18 км 3/0
[Ci]
-0.3 -4.2 75 -7 -7 прохладно 1014.9 997.9 -1.4 +0.6
ЮЗ 5 23 км 4/0
[Ac und Ci]
-0.2 -4.1 75 -6 -6 по сезону 1015.0 998.0
Ю 7 25 км 5/1 1500 м
[Sc Ac trans Ci sp]
+0.6 -3.9 72 -6 -6 тепло 1015.0 998.0
Местоположение метеостанции Лейпциг аэропорт (Германия): широта 51.42 долгота 12.23 высота над уровнем моря 133 м.
В архиве по умолчанию представлена погода в Лейпциг аэропорту за последнюю неделю. Архивные данные за месяц целиком и за предыдущие месяцы, начиная с января 2011 года, Вы можете получить, выбрав интересующий диапазон дат из раскрывающегося списка и нажав кнопку "Найти!".
*Определитесь, кто Вы:
Внимание! Время в таблицах - всемирное. Для получения местного времени необходимо прибавить поправку, которая равна 1 ч.
Смотрите также архив погоды в соседних городах и на ближайших метеорологических станциях:
Партнеры нашего сайта:      
Пояснения к столбцам:
  • Ветер - указаны скорость ветра в м/с - средняя за 10 мин, порывы в срок и между сроками (в фигурных скобках) и направление, откуда дует ветер: С - северный,
  • СВ - северо-восточный, В - восточный, ЮВ - юго-восточный, Ю - южный, ЮЗ - юго-западный, З - западный, СЗ - северо-западный.
  • Видимость - горизонтальная дальность видимости в метрах или километрах. При видимости от 1 до 10 км при отсутствии осадков обычно наблюдается дымка, при ухудшении видимости до 1 км и менее - туман. В сухую погоду видимость может ухудшаться дымом, пылью или мглою.
  • Явления - указаны атмосферные явления, наблюдавшиеся в срок или в последний час перед сроком; фигурными скобками обозначены явления, наблюдавшиеся между сроками (за 1-3 часа до срока); квадратными скобками обозначены град или гололедные отложения с указанием их диаметра в мм.
  • Облачность - указаны через наклонную черту общая и нижняя облачность в баллах и высота нижней границы облаков в метрах; квадратными скобками обозначены формы облаков: Ci - перистые, Cs - перисто-слоистые, Cc - перисто-кучевые, Ac - высококучевые, As - высокослоистые, Sc - слоисто-кучевые, Ns - слоисто-дождевые, Cu - кучевые, Cb - кучево-дождевые. Подробнее классификацию облаков см. в Атласе облаков (PDF).
  • T - Температура воздуха - температура, измеренная на высоте 2 м над землей.
  • Td - Температура точки росы - температура, при понижении до которой содержащийся в воздухе водяной пар достигнет насыщения.
  • f - Относительная влажность воздуха - влажноcть воздуха, измеренная на высоте 2 м над землей.
  • Te - Эффективная температура - температура, которую ощущает одетый по сезону человек в тени. Характеристика душности погоды. При расчете учитывается влияние влажности воздуха и скорости ветра на теплоощущения человека.
  • Tes - Эффективная температура на солнце - температура, которую ощущает человек, с поправкой на солнечный нагрев. Характеристика знойности погоды. Зависит от высоты солнца над горизонтом, облачности и скорости ветра. Ночью, в пасмурную погоду, а также при ветре 12 м/с и более поправка равна нулю.
  • P - Атмосферное давление - приведенное к уровню моря атмосферное давление.
  • Po - Атмосферное давление - измеренное на уровне метеостанции атмосферное давление.
  • Tmin - Минимальная температура - минимум температуры воздуха на высоте 2 м над землей.
  • Tmax - Максимальная температура - максимум температуры воздуха на высоте 2 м над землей.
  • R - Количество осадков - Количество выпавших осадков за период времени, мм. При наведении курсора мыши на число - период времени, за который выпало указанное количество осадков.
  • R24 - Количество осадков - Количество выпавших осадков за 24 часа, мм.
  • S - Снежный покров - Высота снежного покрова, см. При наведении курсора мыши на число - состояние снежного покрова и степень покрытия местности в баллах.